This is the latest recevied weather packets stored in our database for station/object ac2ev. If no packets are shown the sender has not sent any weather packets the latest 10 day(s).
| Time | Temp. | Humidity | Pressure | Rain* | Wind** | Luminosity | Snow |
|---|---|---|---|---|---|---|---|
| 1777992363 | 20° C | 60% | 1002.1 hPa | 0 mm | - | - | - |
| 1777992062 | 20° C | 59% | 1002.1 hPa | 0 mm | - | - | - |
| 1777991762 | 20.56° C | 58% | 1002.1 hPa | 0 mm | - | - | - |
| 1777991462 | 21.11° C | 57% | 1002.1 hPa | 0 mm | - | - | - |
| 1777991165 | 21.67° C | 56% | 1001.9 hPa | 0 mm | - | - | - |
| 1777990862 | 21.67° C | 56% | 1001.6 hPa | 0 mm | - | - | - |
| 1777990562 | 21.67° C | 57% | 1001.5 hPa | 0 mm | - | - | - |
| 1777989962 | 21.67° C | 56% | 1001.4 hPa | 0 mm | - | - | - |
| 1777989663 | 21.67° C | 56% | 1001.2 hPa | 0 mm | - | - | - |
| 1777989362 | 21.67° C | 56% | 1001.3 hPa | 0 mm | - | - | - |
| 1777989063 | 21.11° C | 57% | 1001.2 hPa | 0 mm | - | - | - |
| 1777988762 | 21.11° C | 57% | 1001.3 hPa | 0 mm | - | - | - |
| 1777988463 | 21.11° C | 57% | 1001.2 hPa | 0 mm | - | - | - |
| 1777988163 | 21.11° C | 58% | 1001.2 hPa | 0 mm | - | - | - |
| 1777987863 | 21.11° C | 59% | 1001.2 hPa | 0 mm | - | - | - |
| 1777987562 | 20.56° C | 59% | 1001 hPa | 0 mm | - | - | - |
| 1777987263 | 20.56° C | 61% | 1001.1 hPa | 0 mm | - | - | - |
| 1777986962 | 20.56° C | 62% | 1001.2 hPa | 0 mm | - | - | - |
| 1777986663 | 20° C | 62% | 1001.1 hPa | 0 mm | - | - | - |
| 1777986363 | 20° C | 63% | 1001.2 hPa | 0 mm | - | - | - |
| 1777986063 | 20° C | 63% | 1001.2 hPa | 0 mm | - | - | - |
| 1777985763 | 20° C | 63% | 1001.2 hPa | 0 mm | - | - | - |
| 1777985460 | 20° C | 63% | 1001.1 hPa | 0 mm | - | - | - |
| 1777985161 | 20° C | 63% | 1001.1 hPa | 0 mm | - | - | - |
| 1777984860 | 20° C | 63% | 1001.1 hPa | 0 mm | - | - | - |
* Rain latest hour (hover to see other rain measurements)
** Current wind speed in m/s (hover to see current wind gust speed)